DECAYED

COSMOS 2251 DEB, 35903 (Decayed)

Orbit data source: Space-Track

COSMOS 2251 DEB, 35903 was space debris in LEO originally from a launch on Wed, 16 Jun 1993 UTC launched from the Plesetsk Missile And Space Complex (PKMTR). The debris from Iridium 33, an American commercial communications satellite, has been tracked extensively since its accidental collision with the defunct Russian satellite Cosmos 2251 in 2009. This event, occurring at high speed in low Earth orbit (LEO), generated thousands of pieces of space debris, significantly increasing the risk of further collisions. The Iridium 33 debris cloud has impacted space traffic management and orbital debris mitigation strategies, making it a subject of ongoing study in space situational awareness.

Not visible in the next 10 days
Identifier
35903, 1993-036AUS
Orbit
Decayed
Country
Flag of CISCIS
Related business
Manufacturer
Unknown
Mission
Decayed spacecraft
Bus & Motor
Unknown
Mass
Unknown
Launch date (UTC)
1993-06-16 (33 years ago)
Launch vehicle
Unknown
Launch site
Plesetsk Missile And Space Complex (PKMTR)
Object type
Payload
Rocket body
Debris
Shape & HBR
Unknown shape, 0.1 m
Radar Cross Section
Small (<0.1 m²)

Expand to show TLE details & history
Last TLE update: 1 year ago

TLE from 1 year ago
0 COSMOS 2251 DEB
1 35903U 93036AUS 25046.91228780  .00851878  00000-0  52401-2 0  9996
2 35903  74.0282 110.9444 0020379 285.8760  74.0220 15.74565877629024
Epoch: 2025-02-15T21:53Z
TLE epoch observation values (Epoch: 2025-02-15T21:53:41.665Z)
Latitude
-0°
Longitude
-3.6321°
Altitude
344.896 km
Speed
7.704 km/s
True Right ascension
07h 23m 46s
True Declination
0° 00' 00"
Sunlit
Object was in full shadow at epoch
Visualization orbit readout
Latitude
Unknown
Longitude
Unknown
Altitude
Unknown
Speed
Unknown
Apparent Right ascension
Unknown
Apparent Declination
Unknown
Sunlit
N/A
Visualization observer readout
Local Sidereal Time
22:44:59
Azimuth
Unknown
Elevation
Unknown
Doppler factor
Unknown
Orbital elements
Apogee altitude
357.038 km
Perigee altitude
329.643 km
Semi-major axis
6,721.478 km
Eccentricity
0.00204
Inclination
74.0282°
RAAN
110.9444°
Arg. of periapsis
285.876°
True anomaly
74.24666°
Mean anomaly
74.022°
Eccentric anomaly
74.13432°
Mean motion
3.93864 °/min
Orbital period
91.4 mins
BSTAR
0.0052401
Loading maneuver chart data...
Computing Atmospheric mass density...

Documentation

Showing up to 5 results
|